Location: Unspecified
(0.0000°N, 0.0000°E)
Time: 17:13:12
(UTC+00:00)

FENGYUN 1C DEB - Pass Details

Date: 22 February 2026
Orbit: 819 x 963 km, 99.2° (Epoch: 3 October)

Event Time Altitude Azimuth Distance (km) Brightness Sun altitude
Rises 03:27:43 0° 138° (SE) 3,480 ? -40.7°
Reaches altitude 10° 03:30:52 10° 120° (ESE) 2,514 ? -39.9°
Maximum altitude 03:34:37 19° 77° (ENE) 1,942 ? -39.0°
Enters shadow 03:37:05 14° 46° (NE) 2,183 ? -38.4°
